x

Big Bay, Mi (bigm4) Weather Station

4:40pm - Tue 23rd Sep 2014 All times are CDT. -5 hours from GMT.

  • Wind
    1mph, 7mph gusts
  • Air Temp 67°f
  • Sea Pressure 1022mb
  • Big Bay, Mi
  • Big Bay, Mi

More Historic Weather Station data

Upgrade to MSW Pro to gain access to the past 30 days of data for over 8000 Wavebouys and Weather Stations around the globe.

Join Pro

Comparision Forecast

View Surf forecast
   
Tue 09/23 4:40pm 1 7 mph 1022mb 67f
4:30pm 2 7 mph 1022mb 66f
4:20pm 2 5 mph 1022mb 66f
4:10pm  -  3 mph 1022mb 67f
4:00pm  -  2 mph 1022mb 67f
3:40pm 1 3 mph 1022mb 66f
3:30pm  -  3 mph 1022mb 66f
3:20pm  -  3 mph 1022mb 66f
3:10pm 1 3 mph 1022mb 66f
3:00pm 2 7 mph 1022mb 64f
2:40pm 6
mph
1022mb 67f
2:30pm 5 6 mph 1022mb 67f
2:20pm 3 5 mph 1022.4mb 64f
2:10pm 3 5 mph 1022.4mb 65f
2:00pm 3 6 mph 1022.4mb 66f
1:40pm 3 5 mph 1022.4mb 65f
1:30pm 3
mph
1022.4mb 65f
1:20pm 3 5 mph 1022.4mb 64f
1:10pm 3
mph
1022.4mb 65f
1:00pm 3 6 mph 1022.4mb 66f
12:40pm 1 6 mph 1022.4mb 64f
12:30pm 2 5 mph 1022.4mb 65f
12:20pm 2 7 mph 1022.4mb 63f
12:10pm 5 7 mph 1022mb 64f
12:00pm 5 7 mph 1022mb 63f
11:40am 2 7 mph 1022mb 64f
11:30am 5 8 mph 1022mb 66f
11:20am 2 6 mph 1022mb 65f
11:10am 2 6 mph 1022mb 65f
11:00am 3 6 mph 1022mb 64f
10:40am 3 6 mph 1022mb 65f
10:30am 5 9 mph 1022mb 69f
10:20am 3 6 mph 1022mb 70f
10:10am 2 10 mph 1022mb 69f
10:00am 6 8 mph 1022mb 68f
9:40am 3 7 mph 1021.7mb 67f
9:30am 2 5 mph 1021.7mb 67f
9:20am 2 7 mph 1021.7mb 67f
9:10am  -  5 mph 1021.3mb 67f
9:00am  -  9 mph 1021.7mb 66f
8:40am 2 7 mph 1021mb 65f
8:30am 3 10 mph 1021mb 64f
8:20am 5 9 mph 1021.3mb 64f
8:10am 5 8 mph 1021mb 63f
8:00am 2 6 mph 1020.7mb 62f
7:40am 3 9 mph 1020.7mb 62f
7:30am 5 9 mph 1020.7mb 62f
7:20am 5 10 mph 1020.7mb 62f
7:10am 5 10 mph 1020.7mb 61f
7:00am 6 10 mph 1020.3mb 61f
6:40am 6 9 mph 1020.3mb 61f
6:30am 5 11 mph 1020mb 62f
6:20am 6 11 mph 1020mb 62f
6:10am 6 11 mph 1020mb 62f
6:00am 6 13 mph 1020mb 62f
5:40am 8 14 mph 1019.6mb 62f
5:30am 7 11 mph 1019.6mb 61f
5:20am 5 11 mph 1019.6mb 61f
5:10am 5 11 mph 1019.6mb 61f
5:00am 6 11 mph 1019.6mb 61f
4:40am 6 10 mph 1019.3mb 61f
4:30am 6 9 mph 1019.3mb 61f
4:20am 6 11 mph 1019.3mb 61f
4:10am 5 11 mph 1019mb 61f
4:00am 3 9 mph 1019.3mb 61f
3:40am 3 9 mph 1019mb 62f
3:30am 5 13 mph 1019mb 62f
3:20am 3 9 mph 1019mb 62f
3:10am 6 8 mph 1019mb 62f
3:00am 3 7 mph 1019mb 62f
2:40am 3 9 mph 1018.6mb 62f
2:30am 5 11 mph 1018.6mb 63f
2:20am 5 14 mph 1018.6mb 63f
2:10am 7 14 mph 1018.6mb 63f
2:00am 5 8 mph 1018.6mb 63f
1:40am 3 10 mph 1018.3mb 63f
1:30am 5 10 mph 1018.3mb 63f
1:20am 5 11 mph 1018.3mb 63f
1:10am 6 10 mph 1018.3mb 63f
1:00am 5 11 mph 1017.9mb 63f
12:40am 7 14 mph 1017.9mb 63f
12:30am 5 10 mph 1017.9mb 63f
12:20am 3 11 mph 1017.9mb 63f
12:10am 3 11 mph 1017.9mb 63f
12:00am 6 11 mph 1017.9mb 62f
Mon 09/22 11:40pm 6 11 mph 1017.6mb 62f
11:30pm 7 11 mph 1017.6mb 62f
11:20pm 5 11 mph 1017.6mb 62f
11:10pm 5 9 mph 1017.6mb 62f
11:00pm 5 11 mph 1017.6mb 62f
10:40pm 5 10 mph 1017.6mb 62f
10:30pm 3 10 mph 1017.6mb 63f
10:20pm 5 9 mph 1017.3mb 63f
10:10pm 3 10 mph 1017.3mb 63f
10:00pm 5 9 mph 1017.3mb 63f
9:40pm 5 10 mph 1017.3mb 62f
9:30pm 5 10 mph 1017.3mb 62f
9:20pm 5 9 mph 1017.3mb 62f
9:10pm 3 11 mph 1017.3mb 62f
9:00pm 5 10 mph 1017.3mb 61f
8:40pm 3 7 mph 1017.6mb 58f
8:30pm 1 3 mph 1017.3mb 57f
8:20pm 1 3 mph 1017.3mb 53f
8:10pm  -  2 mph 1017.3mb 53f
8:00pm 1 3 mph 1017.3mb 53f
7:40pm 1 2 mph 1017.3mb 54f
7:30pm  -  1 mph 1017.3mb 55f
7:20pm  -  2 mph 1017.3mb 55f
7:10pm  -  1 mph 1016.9mb 56f
7:00pm  -  2 mph 1016.9mb 56f
6:40pm  -  2 mph 1016.9mb 58f
6:30pm 1 3 mph 1016.9mb 60f
6:20pm  -  2 mph 1016.9mb 61f
6:10pm 1 6 mph 1016.9mb 65f
6:00pm 2 8 mph 1016.9mb 67f
5:40pm 2 7 mph 1016.9mb 68f
5:30pm 2 8 mph 1016.9mb 69f
5:20pm  -  10 mph 1016.9mb 68f
5:10pm 5 13 mph 1016.9mb 68f
5:00pm 6 11 mph 1016.9mb 68f
4:50pm 6 14 mph 1016.9mb 68f
4:40pm 7 13 mph 1016.9mb 68f
4:30pm 5 11 mph 1016.9mb 68f
4:20pm 5 14 mph 1016.9mb 68f
4:10pm 7 11 mph 1016.9mb 68f
4:00pm 6 13 mph 1016.9mb 67f
3:50pm 7 13 mph 1017.3mb 67f
3:40pm 8 17 mph 1017.3mb 67f
3:30pm 3 14 mph 1017.3mb 67f
3:20pm 3 11 mph 1017.6mb 67f
3:10pm 5 16 mph 1017.3mb 67f
3:00pm 8 15 mph 1017.3mb 66f
2:50pm 5 15 mph 1017.3mb 66f
2:40pm 7 16 mph 1017.6mb 66f
2:30pm 6 15 mph 1017.6mb 66f
2:20pm 7 18 mph 1017.6mb 65f
2:10pm 6 15 mph 1017.6mb 65f
2:00pm 8 15 mph 1017.6mb 65f
1:50pm 9 15 mph 1017.9mb 64f
1:40pm 7 15 mph 1017.9mb 65f
1:30pm 5 15 mph 1017.9mb 64f
1:20pm 6 14 mph 1017.9mb 65f
1:10pm 6 13 mph 1017.9mb 64f
1:00pm 9 16 mph 1018.3mb 64f
12:50pm 6 18 mph 1018.3mb 64f
12:40pm 8 17 mph 1018.3mb 64f
12:30pm 7 14 mph 1018.3mb 64f
12:20pm 7 16 mph 1018.3mb 63f
12:10pm 10 17 mph 1017.9mb 63f
12:00pm 8 15 mph 1018.3mb 62f
11:50am 9 16 mph 1018.3mb 62f
11:40am 8 16 mph 1018.6mb 63f
11:30am 9 15 mph 1018.6mb 62f
11:20am 6 14 mph 1018.6mb 62f
11:10am 5 9 mph 1019mb 62f
11:00am 3 13 mph 1019mb 61f
10:50am 8 13 mph 1019mb 61f
10:40am 9 15 mph 1019mb 60f
10:30am 8 14 mph 1019mb 60f
10:20am 8 14 mph 1019.3mb 59f
10:10am 9 15 mph 1019.3mb 59f
10:00am 7 14 mph 1019.3mb 58f
9:50am 7 14 mph 1019.3mb 58f
9:40am 7 11 mph 1019.3mb 58f
9:30am 7 11 mph 1019.3mb 57f
9:20am 3 11 mph 1019mb 57f
9:10am 8 13 mph 1019mb 56f
9:00am 5 13 mph 1019mb 56f
8:50am 6 11 mph 1019mb 55f
8:40am 6 9 mph 1019.3mb 54f
8:30am 5 11 mph 1019.3mb 54f
8:20am 5 11 mph 1019mb 53f
8:10am 5 9 mph 1019mb 53f
8:00am 5 10 mph 1019mb 52f
7:50am 3 14 mph 1019mb 52f
7:40am 3 9 mph 1019mb 52f
7:30am 5 8 mph 1019mb 51f
7:20am 3 8 mph 1019mb 51f
7:10am 5 8 mph 1019mb 50f
7:00am 3 7 mph 1019mb 50f
6:50am 5 7 mph 1019mb 50f
6:40am 5 8 mph 1019mb 49f
6:30am 5 8 mph 1018.6mb 49f
6:20am 3 7 mph 1018.6mb 48f
6:10am 3 7 mph 1019mb 47f
6:00am 5 8 mph 1018.6mb 45f
5:50am 3 8 mph 1019mb 39f
5:40am 2 5 mph 1018.6mb 38f
5:30am 3 5 mph 1018.6mb 38f
5:20am 2 6 mph 1018.6mb 37f
5:10am 3 5 mph 1018.6mb 37f
5:00am 3
mph
1019mb 37f
4:50am 2
mph
1019mb 36f
4:40am 2
mph
1018.6mb 36f
4:30am 1 2 mph 1018.6mb 36f
4:20am 1 2 mph 1018.6mb 36f
4:10am 2
mph
1018.6mb 37f
4:00am 2 3 mph 1018.6mb 37f
3:50am 2 3 mph 1018.6mb 37f
3:40am 2 3 mph 1018.6mb 37f
3:30am 2 3 mph 1018.6mb 37f
3:20am 2 3 mph 1018.3mb 37f
3:10am 2 3 mph 1018.6mb 37f
3:00am 2 5 mph 1018.6mb 37f
2:50am 3 5 mph 1018.6mb 38f
2:40am 2 3 mph 1019mb 38f
2:30am 2 3 mph 1019mb 38f
2:20am 2 5 mph 1019mb 39f
2:10am 3 6 mph 1019mb 40f
2:00am 5 7 mph 1019mb 40f
1:50am 5 7 mph 1019mb 40f
1:40am 5 7 mph 1019.3mb 40f
1:30am 3 5 mph 1019mb 40f
1:20am 3 6 mph 1019.3mb 40f
1:10am 3 5 mph 1019.3mb 40f
1:00am 3 7 mph 1019.3mb 40f
12:50am 5 6 mph 1019.3mb 40f
12:40am 5 7 mph 1019.3mb 40f
12:30am 3 6 mph 1019.3mb 40f
12:20am 3 6 mph 1019.3mb 41f
12:10am 3 6 mph 1019.3mb 41f
12:00am 3 6 mph 1019.6mb 41f
Sun 09/21 11:50pm 5 7 mph 1019.3mb 41f
11:40pm 3 6 mph 1019.6mb 41f
11:30pm 3 7 mph 1019.6mb 42f
11:20pm 3 6 mph 1020mb 42f
11:10pm 5 6 mph 1019.6mb 42f
11:00pm 5 6 mph 1019.6mb 41f
10:50pm 3 6 mph 1020mb 41f
10:40pm 3 5 mph 1020mb 41f
10:30pm 2 6 mph 1020mb 41f
10:20pm 2 5 mph 1020mb 41f
10:10pm 2 5 mph 1020.3mb 41f
10:00pm 2 3 mph 1020mb 42f
9:50pm 2 6 mph 1020mb 43f
9:40pm 2 6 mph 1020mb 44f
9:30pm 2 6 mph 1019.6mb 43f
9:20pm 3 6 mph 1019.6mb 44f
9:10pm 3 7 mph 1020mb 44f
9:00pm 3 8 mph 1020mb 44f
8:50pm 3 8 mph 1019.6mb 45f
8:40pm 3 8 mph 1019.6mb 45f
8:30pm 5 8 mph 1019.6mb 45f
8:20pm 3 7 mph 1019.6mb 45f
8:10pm 5 7 mph 1019.6mb 46f
8:00pm 3 6 mph 1019.3mb 45f
7:50pm 3 8 mph 1019.3mb 46f
7:40pm 3 10 mph 1019.3mb 47f
7:30pm 9 14 mph 1019mb 48f
7:20pm 9 14 mph 1019mb 48f
7:10pm 10 16 mph 1019mb 48f
7:00pm 11 16 mph 1019mb 48f
6:50pm 13 17 mph 1019mb 48f
6:40pm 13 18 mph 1019mb 48f
6:30pm 14 17 mph 1019mb 48f
6:20pm 10 17 mph 1018.6mb 48f
6:10pm 11 18 mph 1018.6mb 48f
6:00pm 15 18 mph 1018.6mb 49f
5:50pm 15 18 mph 1018.3mb 48f
5:40pm 13 18 mph 1018.3mb 48f
5:30pm 14 18 mph 1017.9mb 48f
5:20pm 15 17 mph 1017.9mb 48f
5:10pm 14 20 mph 1017.9mb 48f
5:00pm 16 23 mph 1017.9mb 48f
4:50pm 17 22 mph 1017.9mb 48f
4:40pm 18 23 mph 1017.6mb 49f
4:30pm 15 22 mph 1017.6mb 49f
4:20pm 13 21 mph 1017.3mb 50f
4:10pm 17 22 mph 1017.3mb 48f
4:00pm 17 22 mph 1017.3mb 48f
3:50pm 15 23 mph 1016.9mb 48f
3:40pm 20 22 mph 1016.9mb 47f
3:30pm 13 16 mph 1017.3mb 47f
3:20pm 15 21 mph 1017.3mb 47f
3:10pm 17 24 mph 1016.9mb 47f
3:00pm 17 23 mph 1016.9mb 47f
2:50pm 20 24 mph 1016.9mb 47f
2:40pm 18 26 mph 1016.6mb 46f
2:30pm 20 25 mph 1016.6mb 46f
2:20pm 18 25 mph 1016.3mb 47f
2:10pm 18 25 mph 1016.3mb 46f
2:00pm 21 25 mph 1016.3mb 47f
1:50pm 20 25 mph 1016.3mb 46f
1:40pm 18 23 mph 1016.3mb 46f
1:30pm 17 24 mph 1015.9mb 46f
1:20pm 18 23 mph 1015.9mb 46f
1:10pm 16 22 mph 1015.9mb 46f
1:00pm 13 25 mph 1015.9mb 46f
12:50pm 21 30 mph 1015.6mb 47f
12:40pm 23 31 mph 1015.2mb 47f
12:30pm 21 30 mph 1015.2mb 47f
12:20pm 21 26 mph 1015.2mb 47f
12:10pm 22 28 mph 1014.9mb 47f
12:00pm 23 28 mph 1014.9mb 47f
11:50am 23 29 mph 1014.9mb 47f
11:40am 24 29 mph 1014.6mb 47f
11:30am 25 32 mph 1014.6mb 47f
11:20am 23 30 mph 1014.6mb 47f
11:12am 24 29 mph 1013.9mb 47f
11:10am 24 31 mph 1014.2mb 47f
11:00am 24 30 mph 1013.9mb 47f
10:50am 23 29 mph 1013.9mb 47f
10:40am 25 30 mph 1013.5mb 47f
10:30am 24 31 mph 1013.5mb 47f
10:20am 25 31 mph 1013.5mb 47f
10:10am 28 32 mph 1013.2mb 47f
10:03am 24 30 mph 1013.2mb 47f
10:00am 26 31 mph 1013.2mb 47f
9:50am 25 30 mph 1013.2mb 48f
9:40am 25 32 mph 1012.9mb 47f
9:30am 25 32 mph 1012.5mb 48f
9:21am 26
mph
1012.5mb 47f
9:20am 26 31 mph 1012.2mb 47f
9:10am 26 32 mph 1012.2mb 48f
9:02am 24 29 mph 1011.5mb 48f
9:00am 25 34 mph 1011.9mb 48f
8:50am 28 31 mph 1011.5mb 47f
8:40am 28 31 mph 1011.5mb 48f
8:30am 26 30 mph 1011.5mb 48f
8:20am 26 32 mph 1011.2mb 48f
8:10am 26 31 mph 1010.8mb 48f
8:00am 28 34 mph 1010.5mb 48f
7:58am 30 31 mph 1010.2mb 48f
7:50am 28 36 mph 1010.2mb 48f
7:40am 24 33 mph 1009.8mb 48f
7:30am 28 31 mph 1009.8mb 49f
7:20am 26 33 mph 1009.5mb 49f
7:10am 26 33 mph 1009.1mb 49f
7:00am 29 34 mph 1009.1mb 49f
6:57am 24 30 mph 1008.8mb 49f
6:50am 26 33 mph 1008.8mb 49f
6:40am 25 33 mph 1008.8mb 49f
6:30am 24 30 mph 1008.5mb 50f
6:20am 25 31 mph 1008.1mb 50f
6:10am 23 29 mph 1007.8mb 50f
6:00am 22 30 mph 1007.8mb 50f
5:57am 24 30 mph 1007.5mb 50f
5:50am 22 26 mph 1007.5mb 51f
5:40am 23 26 mph 1007.5mb 51f
5:30am 23 26 mph 1007.1mb 51f
5:20am 22 24 mph 1007.1mb 51f
5:10am 21 24 mph 1007.1mb 51f
5:00am 21 25 mph 1006.8mb 51f
4:50am 21 24 mph 1006.8mb 51f
4:40am 22 24 mph 1006.4mb 51f
4:30am 22 26 mph 1006.4mb 52f
4:20am 22 25 mph 1006.1mb 52f
4:10am 21 25 mph 1006.1mb 51f
4:00am 18 23 mph 1006.1mb 51f
3:50am 20 23 mph 1006.1mb 51f
3:40am 17 23 mph 1005.8mb 51f
3:30am 18 22 mph 1005.8mb 51f
3:20am 20 22 mph 1005.8mb 51f
3:10am 18 23 mph 1005.4mb 52f
3:00am 21 24 mph 1005.4mb 52f
2:50am 21 24 mph 1005.4mb 52f
2:40am 22 24 mph 1005.4mb 52f
2:30am 17 21 mph 1005.1mb 53f
2:20am 18 21 mph 1005.4mb 53f
2:10am 16 18 mph 1005.1mb 53f
2:00am 15 17 mph 1005.1mb 53f
1:50am 13 16 mph 1005.1mb 53f
1:40am 14 16 mph 1005.1mb 53f
1:30am 13 16 mph 1005.1mb 53f
1:20am 14 15 mph 1005.1mb 53f
1:10am 9 11 mph 1005.1mb 53f
1:00am 9 10 mph 1004.7mb 53f
12:50am 8 10 mph 1004.7mb 53f
12:40am 8 9 mph 1004.7mb 53f
12:30am 9 11 mph 1005.1mb 53f
12:20am 9 10 mph 1005.1mb 53f
12:10am 8 10 mph 1005.1mb 54f
12:00am 9 10 mph 1005.1mb 54f
Sat 09/20 11:50pm 9 13 mph 1005.1mb 54f
11:40pm 10 13 mph 1005.1mb 55f
11:30pm 11 14 mph 1005.1mb 55f
11:20pm 11 13 mph 1005.4mb 55f
11:10pm 8 9 mph 1005.4mb 55f
11:00pm 6 8 mph 1005.4mb 56f
10:50pm 6
mph
1005.4mb 56f
10:40pm 2 3 mph 1005.4mb 55f
10:30pm  -  2 mph 1005.4mb 56f
10:20pm 2 3 mph 1005.4mb 56f
10:10pm 2 3 mph 1005.4mb 56f
10:00pm  -  2 mph 1005.4mb 56f
9:50pm  -  1 mph 1005.1mb 56f
9:40pm  -  2 mph 1005.1mb 56f
9:30pm 1 3 mph 1005.4mb 56f
9:20pm 2 5 mph 1005.4mb 56f
9:10pm 5
mph
1005.4mb 56f
9:00pm 2 6 mph 1005.1mb 56f
8:50pm 3 5 mph 1005.1mb 57f
8:40pm 1 7 mph 1005.1mb 57f
8:30pm 5 8 mph 1005.4mb 57f
8:20pm 5 8 mph 1005.1mb 57f
8:10pm 7 8 mph 1005.4mb 57f
8:00pm 5 6 mph 1005.4mb 57f
7:50pm 2 5 mph 1005.4mb 58f
7:40pm  -  6 mph 1005.4mb 58f
7:30pm 5 8 mph 1005.1mb 58f
7:20pm 7 8 mph 1005.1mb 58f
7:10pm 7 10 mph 1005.1mb 58f
7:00pm 8 11 mph 1004.7mb 58f
6:50pm 9 11 mph 1004.7mb 58f
6:40pm 9 15 mph 1004.7mb 59f
6:30pm 13 14 mph 1004.7mb 58f
6:20pm 7 9 mph 1004.7mb 60f
6:10pm 6 8 mph 1004.7mb 61f
6:00pm 5 8 mph 1004.4mb 61f
5:50pm 7 14 mph 1004.4mb 61f
5:40pm 7 13 mph 1004.1mb 61f
5:30pm 7 15 mph 1004.1mb 62f
5:20pm 8 14 mph 1004.1mb 62f
5:10pm 9 15 mph 1004.1mb 63f
5:00pm 8 15 mph 1004.1mb 63f
4:50pm 10 17 mph 1003.7mb 64f
4:40pm 8 17 mph 1003.7mb 64f
4:30pm 9 16 mph 1003.4mb 65f
4:20pm 6 17 mph 1003.4mb 65f
4:10pm 8 13 mph 1003mb 66f
4:00pm 7 9 mph 1003.4mb 65f
3:50pm 5 10 mph 1003mb 65f
3:40pm 6 9 mph 1003mb 66f
3:30pm 5 9 mph 1003mb 65f
3:20pm 6 13 mph 1003mb 65f
3:10pm 7 14 mph 1003mb 66f
3:00pm 5 14 mph 1002.7mb 66f
2:50pm 6 15 mph 1002.7mb 66f
2:40pm 7 15 mph 1002.7mb 66f
2:30pm 9 18 mph 1002.7mb 66f
2:20pm 10 17 mph 1002.7mb 67f
2:10pm 8 14 mph 1002.7mb 68f
2:00pm 7 20 mph 1002.7mb 68f
1:50pm 6 16 mph 1002.7mb 67f
1:40pm 7 20 mph 1002.4mb 67f
1:30pm 8 15 mph 1002mb 68f
1:20pm 5 11 mph 1002mb 67f
1:10pm 7 20 mph 1002mb 67f
1:00pm 3 14 mph 1002mb 66f
12:50pm 9 17 mph 1002mb 67f
12:40pm 6 18 mph 1002mb 67f
12:30pm 7 11 mph 1001.7mb 67f
12:20pm 8 17 mph 1001.7mb 66f
12:10pm 6 17 mph 1001.7mb 66f
12:00pm 10 22 mph 1001.7mb 66f
11:50am 8 15 mph 1001.4mb 67f
11:40am 8 16 mph 1001mb 66f
11:30am 8 15 mph 1000.7mb 66f
11:20am 6 22 mph 1000.7mb 67f
11:10am 9 17 mph 1000.3mb 72f
11:00am 8 20 mph 1000.3mb 72f
10:50am 6 17 mph 1000.3mb 72f
10:40am 3 20 mph 1000.3mb 70f
10:30am 9 18 mph 1000mb 72f
10:20am 6 17 mph 999.7mb 73f
10:10am 8 14 mph 999.7mb 72f
10:00am 6 18 mph 999.7mb 73f
9:50am 8 15 mph 999.7mb 73f
9:40am 7 15 mph 999.7mb 73f
9:30am 5 11 mph 999.7mb 72f
9:20am 5 14 mph 999.7mb 72f
9:10am 6 11 mph 999.7mb 72f
9:00am 7 15 mph 999.7mb 71f
8:50am 5 14 mph 999.7mb 71f
8:40am 3 10 mph 999.7mb 69f
8:30am 5 11 mph 1000mb 69f
8:20am 6 9 mph 1000mb 69f
8:10am 2 10 mph 999.7mb 69f
8:00am 2 9 mph 999.7mb 68f
7:50am 1 9 mph 999.7mb 68f
7:40am 5 15 mph 999.7mb 68f
7:30am 6 14 mph 999.7mb 68f
7:20am 8 15 mph 999.3mb 67f
7:10am 5 15 mph 999.3mb 67f
7:00am 6 11 mph 999.7mb 67f
6:50am 7 13 mph 1000mb 67f
6:40am 3 11 mph 1000mb 67f
6:30am 5 9 mph 1000mb 67f
6:20am 5 10 mph 1000mb 67f
6:10am 5 8 mph 1000mb 67f
6:00am 2 6 mph 1000mb 67f
5:50am 3 8 mph 1000mb 67f
5:40am 5 10 mph 1000.3mb 67f
5:30am 5 9 mph 1000.3mb 67f
5:20am 5 11 mph 1000.3mb 67f
5:10am 5 10 mph 1000.7mb 67f
5:00am 2 10 mph 1000.7mb 67f
4:50am 5 9 mph 1001mb 67f
4:40am 3 10 mph 1001mb 67f
4:30am 5 11 mph 1001mb 67f
4:20am 6 10 mph 1001mb 67f
4:10am 3 9 mph 1000.7mb 66f
4:00am 3 7 mph 1000.7mb 66f
3:50am 1 5 mph 1000.7mb 66f
3:40am 1 5 mph 1000.7mb 67f
3:30am 5 6 mph 1000.7mb 67f
3:20am 2 8 mph 1001.4mb 67f
3:10am 3 8 mph 1001.4mb 67f
3:00am 5 9 mph 1001.4mb 68f
2:50am 6 11 mph 1001.4mb 68f
2:40am 5 11 mph 1001.7mb 68f
2:30am 3 11 mph 1001.7mb 68f
2:20am 6 18 mph 1001.7mb 69f
2:10am 7 14 mph 1002mb 68f
2:00am 8 17 mph 1002.4mb 69f
1:50am 7 14 mph 1002mb 69f
1:40am 6 17 mph 1002mb 69f
1:30am 5 11 mph 1002mb 68f
1:20am 5 13 mph 1001.7mb 68f
1:10am 3 14 mph 1002mb 68f
1:00am 6 11 mph 1002mb 68f
12:50am 3 9 mph 1002mb 68f
12:40am 5 11 mph 1002.4mb 68f
12:30am 2 13 mph 1002.4mb 68f
12:20am 5 13 mph 1002.7mb 68f
12:10am 8 15 mph 1002.4mb 68f
12:00am 6 17 mph 1002.4mb 68f
Fri 09/19 11:50pm 8 16 mph 1002.4mb 68f
11:40pm 8 17 mph 1002.4mb 68f
11:30pm 10 18 mph 1002.4mb 68f
11:20pm 8 23 mph 1002mb 68f
11:10pm 10 28 mph 1002mb 68f
11:00pm 10 22 mph 1002.4mb 68f